EDT,Max TemperatureF,Mean TemperatureF,Min TemperatureF,Max Dew PointF,MeanDew PointF,Min DewpointF,Max Humidity, Mean Humidity, Min Humidity, Max Sea Level PressureIn, Mean Sea Level PressureIn, Min Sea Level PressureIn, Max VisibilityMiles, Mean VisibilityMiles, Min VisibilityMiles, Max Wind SpeedMPH, Mean Wind SpeedMPH, Max Gust SpeedMPH,PrecipitationIn, CloudCover, Events, WindDirDegrees
2012-8-1,83,74,66,73,66,64,94,77,51,29.94,29.89,29.85,10,10,10,7,4,,0.00,4,,302
2012-8-2,88,78,68,73,67,63,94,70,43,29.90,29.86,29.82,10,8,0,13,2,26,0.01,2,Rain-Thunderstorm,124
2012-8-3,92,79,66,69,64,60,90,60,33,30.09,29.98,29.91,10,10,7,13,3,21,0.00,1,,287
2012-8-4,93,80,68,72,68,63,94,76,44,30.26,30.20,30.12,10,7,0,14,5,20,0.79,3,Fog-Rain-Thunderstorm,136
2012-8-5,91,78,65,73,69,64,100,88,48,30.24,30.10,29.92,10,6,0,15,3,41,0.13,4,Fog-Rain-Thunderstorm,240
2012-8-6,81,72,64,73,62,55,94,65,42,30.00,29.96,29.91,10,10,10,14,6,22,0.00,2,,298
2012-8-7,84,70,57,62,59,55,90,65,42,30.04,29.99,29.95,10,10,10,6,3,,0.00,0,,301
2012-8-8,90,76,61,66,60,53,93,63,29,30.01,29.97,29.94,10,10,10,8,2,,0.00,1,Rain,356
2012-8-9,88,77,66,73,67,63,100,82,43,29.98,29.94,29.89,10,6,0,16,3,,0.69,3,Fog-Rain-Thunderstorm,335
2012-8-10,83,76,70,74,71,68,97,88,59,29.94,29.87,29.80,10,7,1,12,3,17,0.70,5,Rain-Thunderstorm,134
2012-8-11,79,72,65,73,70,65,100,88,69,29.94,29.90,29.82,10,9,1,8,4,,0.27,5,Rain-Thunderstorm,65
2012-8-12,84,77,68,72,71,66,100,88,61,29.94,29.91,29.85,10,6,1,8,2,,0.84,4,Fog-Rain-Thunderstorm,120
2012-8-13,84,74,63,65,62,57,93,66,40,29.96,29.93,29.90,10,9,2,9,3,,0.00,1,,300
2012-8-14,83,73,63,66,62,60,93,72,46,29.97,29.94,29.92,10,9,1,7,2,,0.00,1,Rain,310
2012-8-15,83,74,66,70,66,64,100,80,52,29.93,29.89,29.85,10,8,2,7,2,,0.21,3,Rain-Thunderstorm,216
2012-8-16,83,74,65,69,63,54,97,78,36,29.89,29.85,29.81,10,7,1,13,5,,0.56,4,Rain-Thunderstorm,316
2012-8-17,86,72,59,68,63,58,93,72,47,29.86,29.82,29.75,10,9,2,13,3,18,0.03,1,Rain-Thunderstorm,223
2012-8-18,79,71,63,66,61,54,93,72,43,29.92,29.87,29.83,10,10,6,9,3,,0.06,3,Rain,294
2012-8-19,75,64,54,60,55,50,87,67,48,29.99,29.95,29.92,10,10,10,8,4,,0.00,1,,332
2012-8-20,81,68,55,61,56,52,93,68,38,29.95,29.91,29.85,10,9,3,6,2,,0.00,1,,317
2012-8-21,81,72,63,60,56,49,87,62,32,30.10,29.99,29.91,10,10,8,9,3,17,0.00,1,,310
2012-8-22,82,68,55,60,55,49,90,63,32,30.17,30.13,30.10,10,10,4,6,2,,0.00,1,,318
2012-8-23,86,72,59,63,60,56,93,64,35,30.15,30.12,30.09,10,9,2,7,1,,0.00,1,Rain,260
2012-8-24,84,72,59,63,61,57,93,68,44,30.24,30.18,30.13,10,10,5,10,2,,0.00,1,,103
2012-8-25,82,73,63,66,61,54,90,71,43,30.35,30.31,30.24,10,9,4,10,2,,0.00,3,,149
2012-8-26,83,70,57,62,59,55,93,68,44,30.37,30.31,30.24,10,10,7,6,3,,0.00,1,,232
2012-8-27,86,72,57,67,63,55,93,72,47,30.24,30.08,29.93,10,10,4,8,3,,0.00,2,,175
2012-8-28,84,76,68,69,64,55,94,72,44,29.91,29.83,29.72,10,8,2,18,4,25,0.38,3,Rain,324
2012-8-29,77,66,55,55,48,42,80,55,34,30.00,29.96,29.91,10,8,2,14,7,,0.00,0,,322
2012-8-30,81,66,50,55,52,47,90,60,34,30.04,30.00,29.96,10,10,6,9,2,,0.00,0,,276
2012-8-31,90,74,59,61,55,51,83,50,27,29.97,29.88,29.80,10,10,10,10,3,17,0.00,0,,257